Regional Weather Roundup
Issued by NWS Little Rock, AR

Home | Current Version | Previous Version | Text Only | Print | Product List | Glossary Off
Versions: 1 2 3 4 5 6 7 8 9 10 11 12 13 14 15 16 17 18 19 20 21 22 23 24 25 26 27 28 29 30 31 32

000
ASUS44 KLZK 211005
RWRLZK

WEATHER ROUNDUP FOR ARKANSAS
NATIONAL WEATHER SERVICE LITTLE ROCK AR
500 AM CDT SAT APR 21 2018

NOTE: "FAIR" INDICATES FEW OR NO CLOUDS BELOW 12,000 FEET WITH NO
SIGNIFICANT WEATHER AND/OR OBSTRUCTIONS TO VISIBILITY.

ARZ001-003-010-029-211100-
NORTHWEST ARKANSAS

CITY           SKY/WX    TMP DP  RH WIND       PRES   REMARKS
FAYETTEVILLE   CLOUDY    47  30  51 E6        30.19F
FORT SMITH     PTCLDY    51  38  60 E8        30.16F
HARRISON       CLOUDY    47  28  47 CALM      30.22S
BENTONVILLE    CLOUDY    51  27  39 E10       30.20F
ROGERS         CLOUDY    50  27  40 E8        30.21F
SILOAM SPGS    PTCLDY    50  29  44 E7        30.18F
$$

ARZ004-005-016-211100-
NORTH CENTRAL ARKANSAS

CITY           SKY/WX    TMP DP  RH WIND       PRES   REMARKS
BATESVILLE     CLOUDY    41  34  76 CALM      30.23S
FLIPPIN        CLOUDY    46  31  55 N3        30.24S
MTN HOME       PTCLDY    46  30  53 E5        30.23R
$$

ARZ040-041-211100-
WEST CENTRAL ARKANSAS

CITY           SKY/WX    TMP DP  RH WIND       PRES   REMARKS
MENA           CLOUDY    46  45  93 CALM      30.16S
MOUNT IDA      CLOUDY    43  41  93 CALM      30.14S
$$

ARZ009-017-025-026-028-211100-
NORTHEAST ARKANSAS

CITY           SKY/WX    TMP DP  RH WIND       PRES   REMARKS
CORNING        FAIR      46  36  66 NE9       30.26F
JONESBORO      FAIR      46  37  71 NE6       30.24S
NEWPORT        FAIR      46  38  73 E9        30.22
WALNUT RIDGE   FAIR      45  36  70 NE9       30.24F
BLYTHEVILLE    FAIR      47  34  60 E8        30.25S
$$

ARZ022-023-033-042-044-211100-
CENTRAL ARKANSAS

CITY           SKY/WX    TMP DP  RH WIND       PRES   REMARKS
LITTLE ROCK    FAIR      47  39  74 NE5       30.19F
N LITTLE ROCK    N/A     47  39  71 E6        30.16F
JACKSONVILLE   CLOUDY    46  38  75 E7        30.18F
CONWAY         CLOUDY    46  39  76 CALM      30.19S
SEARCY         FAIR      48  37  65 MISG        N/A
HOT SPRINGS    CLOUDY    51  42  71 E5        30.16F
RUSSELLVILLE   PTCLDY    50  34  54 CALM      30.18S
CLINTON        FAIR      37  36  93 CALM      30.22F
$$

ARZ036-211100-
EAST ARKANSAS

CITY           SKY/WX    TMP DP  RH WIND       PRES   REMARKS
WEST MEMPHIS   FAIR      51  35  54 E6        30.21F
$$

ARZ050-053-066-070-073-211100-
SOUTHWEST ARKANSAS

CITY           SKY/WX    TMP DP  RH WIND       PRES   REMARKS
ARKADELPHIA    FAIR      46  43  89 N3        30.16F
CAMDEN         FAIR      45  41  87 CALM      30.15F
TEXARKANA      CLOUDY    47  42  83 E3        30.13R
EL DORADO      FAIR      46  45  96 CALM      30.14F
DE QUEEN       CLOUDY    48  45  89 CALM      30.13S
$$

ARZ056-057-069-211100-
SOUTHEAST ARKANSAS

CITY           SKY/WX    TMP DP  RH WIND       PRES   REMARKS
PINE BLUFF     FAIR      46  43  89 CALM      30.18S
STUTTGART      FAIR      49  41  74 E5        30.19S
MONTICELLO     FAIR      44  41  89 CALM      30.16R

$$






USA.gov is the U.S. government's official web portal to all federal, state and local government web resources and services.